Wind_Speed
30 31 31 31 32 33 33 33 33 33 33 33 34 34 34 34 34 33 36 39 41 42 39 40 45 43 39 38 40 43 43 42 42 43 43 43 43 43 44 44 44 44 44 43 44 44 44 44 44 45 46 46 47 48 49 50 49 50 52 54 55 54 54 56 58 57 57 56 56 57 57 58 59 62 64 67 71 73 76 77 77 77 77 76 75 73
31 32 32 32 33 34 35 35 35 35 35 35 36 36 36 37 38 36 38 40 42 44 42 42 46 45 41 39 39 43 43 42 42 43 43 43 43 44 44 43 43 43 43 43 44 45 46 45 45 46 46 47 48 49 50 50 50 52 54 55 55 54 55 57 58 58 57 57 57 57 57 57 59 62 65 68 71 74 77 78 78 78 77 76 74 72
32 33 33 34 34 35 36 37 37 37 37 37 38 39 38 39 41 39 39 42 43 45 44 44 48 46 43 41 39 41 42 42 43 43 42 43 43 43 43 43 43 43 43 44 46 47 46 46 46 46 47 48 49 50 51 51 52 54 55 56 55 55 56 57 58 58 58 58 58 58 57 58 61 64 67 70 73 76 78 79 79 78 77 74 72 71
33 34 35 35 36 36 37 38 40 40 39 39 39 41 41 41 44 43 43 44 44 47 47 47 50 48 45 41 39 41 41 41 44 44 43 43 43 43 43 43 44 43 44 45 46 47 46 46 47 47 48 49 50 51 51 52 54 55 56 56 56 56 56 57 58 59 59 59 59 59 59 61 64 67 70 73 76 78 80 80 79 77 75 72 71 71
33 35 36 36 36 37 38 40 41 42 42 40 40 42 44 43 45 47 47 48 48 48 48 49 52 53 48 41 38 41 42 42 46 45 43 44 44 44 45 45 45 44 45 45 46 45 45 46 47 48 48 49 50 51 52 54 54 55 56 57 56 56 56 56 58 60 60 59 59 59 61 64 67 70 73 75 78 80 81 79 76 73 71 70 71 72
34 36 38 38 38 38 39 40 43 45 44 42 42 44 46 45 46 48 49 51 52 52 50 49 53 58 55 44 39 41 43 45 48 46 45 46 45 45 45 45 46 46 46 46 45 45 46 47 47 48 49 50 51 52 53 54 54 56 57 57 57 57 56 57 59 60 60 60 60 61 63 66 69 71 74 77 79 80 81 79 75 72 70 71 72 74
36 37 38 39 40 40 40 42 44 46 46 45 43 45 47 47 48 49 50 52 54 55 53 49 53 61 61 50 44 43 44 47 48 47 47 47 46 46 45 46 47 47 47 46 46 47 47 47 48 49 50 51 52 52 53 54 55 56 57 57 57 57 57 58 60 61 61 61 62 65 67 69 71 73 75 77 80 82 82 80 76 72 72 72 74 75
38 39 39 40 40 41 41 43 45 46 47 47 46 47 48 48 50 51 52 53 54 57 56 49 52 61 62 54 48 44 46 49 49 48 48 48 48 47 46 48 49 49 48 48 48 47 47 47 48 49 51 52 52 53 53 55 56 57 57 58 58 58 57 58 61 62 62 63 65 68 70 72 74 75 77 79 82 84 83 80 75 73 72 73 75 78
40 41 41 41 41 41 42 44 46 47 49 49 48 49 49 50 51 52 53 54 55 59 56 50 53 61 62 56 50 46 48 51 50 49 50 50 50 49 48 49 50 50 50 48 46 45 45 47 49 51 52 53 53 53 54 56 58 58 58 59 59 58 58 59 62 64 65 66 68 70 72 74 76 78 79 82 84 85 83 80 76 73 73 74 76 79
42 43 43 43 43 43 44 46 47 48 50 50 50 51 51 52 53 53 55 55 56 60 56 53 56 62 63 58 50 48 51 53 51 50 53 53 52 51 50 51 51 51 49 46 44 44 46 49 50 52 53 54 54 54 56 58 59 59 59 59 59 58 58 60 63 66 67 69 71 73 74 76 78 80 82 84 85 85 83 79 76 75 74 75 77 80
44 45 44 44 44 45 46 48 48 49 51 51 52 52 52 54 55 55 57 56 58 60 57 56 59 62 65 60 51 51 53 53 52 54 55 53 51 50 50 51 52 51 48 44 44 46 49 50 52 54 54 54 55 56 57 59 59 59 59 59 58 58 59 61 65 68 70 71 73 74 76 78 80 82 85 86 86 85 83 80 77 76 76 76 79 82
46 46 46 45 45 46 48 49 50 51 52 53 53 53 54 57 57 57 58 57 59 60 58 60 62 63 65 60 54 55 55 54 55 56 56 53 51 51 51 53 54 51 47 45 47 49 50 52 54 55 55 56 56 57 59 60 60 60 59 59 58 59 61 64 67 70 71 73 75 76 78 81 83 86 87 88 87 86 83 80 78 78 78 79 81 83
48 47 47 46 46 47 49 50 51 52 53 54 54 54 56 58 59 59 60 59 60 61 61 63 63 64 64 59 57 58 57 56 57 57 56 55 54 53 53 55 56 53 49 48 50 51 52 55 56 56 57 57 57 59 60 60 60 60 59 58 58 60 63 67 69 72 73 75 77 79 81 83 86 88 89 89 88 86 83 81 80 80 81 81 82 85
50 49 48 47 47 49 50 51 52 53 54 55 55 56 58 58 59 61 62 62 62 62 63 66 65 63 62 60 60 61 59 58 57 57 58 58 56 54 54 57 56 52 50 50 52 53 55 56 57 57 58 58 58 59 60 60 60 60 59 58 59 62 66 69 71 73 74 76 79 81 84 87 89 90 90 89 88 85 83 82 82 83 83 84 85 86
53 53 50 49 50 51 52 52 54 55 55 56 56 58 58 57 60 62 62 63 65 64 64 66 66 63 62 61 61 61 60 58 58 58 59 58 55 54 55 57 55 52 51 53 54 55 57 58 58 58 58 58 59 60 60 60 60 59 58 58 60 64 67 70 73 74 76 78 81 84 87 89 91 91 90 89 87 84 83 83 83 84 85 86 87 89
54 55 53 53 54 54 54 54 55 56 56 56 57 59 59 59 61 63 63 63 66 67 64 64 65 63 62 62 60 61 60 59 58 57 57 57 54 53 55 55 54 53 53 54 56 58 59 59 59 59 58 59 59 60 60 60 60 58 57 59 63 66 69 72 73 75 77 80 83 86 89 90 91 91 90 88 86 84 84 84 85 85 85 87 89 91
55 56 55 57 58 58 58 58 58 57 57 58 59 59 60 62 62 63 64 65 66 69 65 63 65 65 63 59 57 60 61 59 58 57 56 54 52 53 55 55 55 55 56 57 59 61 61 61 61 60 59 59 59 59 60 60 59 57 58 61 65 68 71 73 74 76 79 82 85 88 90 91 91 90 88 87 85 85 85 85 85 85 86 88 91 92
54 56 57 59 61 61 61 61 61 59 58 59 60 61 62 63 63 63 65 66 67 71 68 64 66 66 63 59 57 59 61 58 57 55 53 51 52 54 56 57 57 58 59 60 61 62 62 62 61 59 59 59 59 59 60 59 57 57 61 64 66 70 72 74 75 77 80 83 86 89 90 91 90 89 87 86 85 85 85 85 85 86 88 90 92 94
55 57 58 59 60 61 61 62 62 59 59 60 61 62 62 63 64 64 65 67 69 72 71 68 68 65 62 61 59 58 57 55 53 51 50 51 53 55 57 58 59 59 61 62 62 62 63 62 60 59 59 59 59 60 59 58 57 60 63 66 68 72 73 74 76 79 81 84 87 89 90 90 89 88 87 86 86 86 85 85 86 87 89 91 93 95
57 59 58 57 59 61 62 62 61 60 61 63 63 62 61 63 64 64 65 68 69 71 72 72 71 64 59 60 56 53 54 53 50 50 51 52 54 57 58 58 59 61 62 63 62 62 63 62 61 60 59 59 60 60 58 57 59 62 65 67 70 73 74 76 78 80 83 86 88 89 90 89 88 87 87 86 86 86 86 86 87 88 91 93 94 95
59 61 60 59 61 63 63 62 62 63 64 65 63 62 61 62 64 66 67 67 68 71 73 75 75 67 59 56 52 49 52 51 49 50 52 53 56 58 58 58 60 63 63 63 63 63 63 62 62 60 60 60 60 58 57 58 61 65 67 69 72 74 75 77 80 82 84 86 88 89 88 88 87 86 86 86 86 86 86 86 88 90 92 94 94 94
62 62 62 63 64 65 64 64 66 67 67 66 63 62 61 61 64 67 68 68 68 71 74 75 78 72 59 51 49 50 51 50 49 52 53 55 57 58 58 60 63 64 63 63 64 64 64 63 62 61 61 60 59 57 58 60 64 66 68 70 73 75 77 79 80 83 85 87 88 88 88 87 86 86 86 86 86 86 86 87 89 91 93 94 94 93
62 63 65 66 66 66 66 67 69 70 69 66 63 62 61 62 64 67 70 70 69 73 75 76 80 75 58 48 49 52 52 50 52 54 54 56 58 59 61 63 64 64 63 64 65 65 65 63 62 62 61 58 57 57 60 63 65 68 69 72 74 76 78 80 82 84 85 86 87 87 87 86 85 86 86 86 86 86 87 88 90 92 94 94 93 93
63 65 68 68 68 68 69 70 71 71 69 66 64 63 64 64 66 68 72 72 72 76 76 76 80 73 56 48 52 54 54 53 53 54 55 58 59 60 62 64 64 64 63 64 65 64 63 62 62 61 58 56 56 58 61 64 66 69 71 73 75 77 79 81 83 85 85 86 86 86 86 85 85 86 86 86 86 87 88 89 91 93 94 94 93 93
66 67 69 70 71 72 72 71 71 70 68 67 67 67 66 66 68 71 73 74 76 79 76 75 79 69 54 52 55 55 56 55 54 56 58 59 61 61 62 63 63 63 63 64 63 62 61 61 60 58 56 56 58 60 63 66 68 70 72 75 76 78 80 82 83 85 85 85 85 85 85 85 85 86 86 86 87 88 89 90 92 93 94 93 93 93
68 69 70 72 75 75 73 72 71 70 70 71 70 69 69 69 70 72 74 76 79 78 73 72 73 65 56 56 56 55 57 57 56 59 60 60 61 61 61 62 62 63 63 62 61 60 60 59 58 56 55 57 59 62 65 67 69 72 74 76 77 78 80 82 83 84 85 85 84 84 84 85 85 86 86 87 87 88 89 91 93 93 93 93 93 94
71 72 73 75 77 77 74 72 72 73 73 73 72 72 72 71 71 75 77 78 77 74 70 67 65 64 61 58 56 55 57 58 59 61 61 60 60 60 61 61 62 62 61 60 59 59 58 57 56 55 56 58 61 64 67 70 71 73 75 76 77 79 80 81 83 83 84 84 84 84 84 85 85 86 86 87 88 89 90 92 93 93 93 93 94 96
74 76 77 78 79 78 75 72 74 76 75 74 74 72 70 68 70 75 77 72 68 68 69 63 59 64 64 57 54 56 58 60 61 60 60 60 60 60 61 61 61 60 59 58 58 57 56 56 55 55 58 61 64 67 70 71 72 73 75 76 77 78 79 81 82 83 83 83 83 84 84 85 85 86 87 88 88 89 91 92 93 93 94 94 95 98
78 81 79 79 79 77 73 71 73 76 75 74 72 69 67 66 67 70 69 63 60 64 67 62 57 62 62 56 54 57 60 62 60 59 60 60 60 61 61 60 60 59 58 57 56 55 55 54 54 57 61 64 68 70 71 72 72 73 74 75 76 77 79 81 82 82 82 83 83 84 84 85 85 87 88 88 89 90 91 92 93 94 94 95 98 100
83 81 74 74 77 72 68 69 72 74 75 73 68 64 64 63 62 62 60 57 57 63 64 60 59 61 57 54 56 59 61 61 60 59 61 61 62 62 60 59 59 58 57 56 54 54 54 54 56 60 64 68 69 70 71 71 72 73 73 74 75 77 80 81 81 81 82 82 83 83 84 85 86 87 88 89 90 91 92 93 93 94 95 97 100 101
79 73 65 68 72 69 66 67 68 70 71 68 65 64 63 59 55 54 54 53 56 61 59 57 62 61 53 53 57 58 59 60 60 61 61 62 62 61 60 59 58 57 56 54 53 54 54 56 60 64 68 70 70 70 71 71 72 72 72 73 75 78 80 81 81 81 81 82 82 83 84 84 85 87 88 89 90 91 92 93 94 95 97 99 101 100
68 66 63 64 68 66 63 63 64 64 63 63 65 64 56 49 49 49 50 52 55 57 56 59 63 61 53 53 56 56 57 59 60 60 61 62 62 61 60 59 57 55 54 54 54 55 56 59 63 67 70 70 69 70 70 71 71 71 71 73 76 78 80 80 80 81 81 81 81 82 83 84 85 87 88 89 91 92 92 93 94 96 98 100 101 96
63 64 62 62 64 62 59 59 60 59 60 64 64 55 44 43 48 49 49 50 52 54 59 62 62 58 54 54 56 55 56 57 57 58 60 61 61 60 58 57 56 55 54 54 56 57 60 63 67 70 70 69 69 69 69 70 70 70 71 74 76 78 79 79 80 80 80 80 81 82 83 84 85 86 88 89 91 92 92 93 95 97 100 100 98 90
62 63 63 62 62 61 58 58 59 59 62 64 56 44 42 46 48 48 49 50 51 55 60 61 59 54 53 54 55 54 54 54 54 55 57 58 58 57 56 55 55 55 55 56 58 60 63 67 70 70 69 68 68 68 69 69 69 69 71 74 76 78 78 79 79 79 79 80 81 82 83 84 85 86 87 89 91 92 93 94 95 98 100 99 93 83
64 64 63 61 62 63 60 58 62 64 61 55 46 43 47 48 46 48 52 52 52 55 58 59 56 52 50 52 53 53 53 52 52 53 53 54 54 54 54 54 53 54 55 57 61 64 67 70 70 68 68 68 67 67 68 68 68 70 72 74 76 77 77 78 78 78 79 80 81 82 83 84 85 86 88 90 91 92 93 94 96 98 98 94 86 74
62 61 62 61 62 64 63 62 66 65 58 51 49 49 49 46 45 50 55 54 52 54 55 55 54 51 50 50 50 51 51 50 52 54 52 52 54 53 52 51 51 53 56 60 64 68 69 69 68 67 67 67 66 66 67 67 68 70 72 74 75 76 76 77 77 78 79 80 81 82 83 84 85 86 88 90 91 92 93 95 96 97 95 89 77 64
59 60 61 62 63 63 64 65 66 65 62 56 51 49 46 44 47 53 58 57 53 50 50 52 52 51 49 49 50 51 51 52 55 56 55 56 56 51 48 48 51 55 59 64 67 69 69 67 66 66 66 65 65 66 66 67 68 70 72 73 74 75 75 76 77 77 79 80 81 82 83 84 85 87 89 90 91 92 94 95 96 95 91 82 69 58
61 61 60 62 63 62 63 65 66 68 66 58 51 49 46 47 51 54 59 59 51 44 46 49 50 50 50 50 51 50 53 57 59 58 58 58 54 48 47 50 54 59 63 66 68 68 67 64 64 65 65 64 65 65 66 66 68 70 71 72 73 74 74 75 76 77 78 80 81 82 83 84 86 88 89 90 91 93 94 95 95 92 84 73 62 54
61 61 60 62 64 62 63 66 67 69 67 58 52 51 50 53 54 54 58 58 47 41 46 49 48 50 51 51 51 54 59 62 59 57 57 56 52 50 52 56 60 63 65 67 67 66 64 62 63 65 65 64 64 65 66 66 67 69 70 71 72 73 73 74 75 77 78 79 81 82 83 85 86 88 89 90 92 93 94 94 92 87 76 64 56 54
60 60 61 63 64 63 64 67 69 70 65 56 52 53 54 56 54 52 57 54 45 43 48 49 50 52 52 52 55 60 63 62 58 56 56 56 55 56 59 61 63 65 66 67 67 64 61 61 64 66 64 63 64 66 66 66 67 68 69 70 71 72 72 73 75 76 78 79 80 82 84 85 86 88 89 90 92 93 93 92 88 81 68 56 53 55
62 62 64 66 66 66 67 69 70 69 62 56 55 55 53 53 53 54 54 49 44 46 48 49 52 53 53 56 61 62 62 60 59 59 58 58 59 61 62 64 65 65 66 66 65 62 60 61 65 66 64 63 65 65 65 66 67 68 69 69 70 71 72 73 74 76 77 79 80 82 84 85 86 87 89 90 91 91 91 89 84 74 61 52 52 56
61 62 65 67 68 69 68 67 68 67 60 54 52 51 49 52 55 53 50 46 47 50 52 52 54 56 59 63 64 63 62 62 62 62 60 60 61 62 63 64 64 64 65 65 63 60 60 63 66 66 64 63 64 65 65 66 66 67 68 68 69 70 71 72 74 75 76 78 80 82 83 84 85 87 89 90 90 89 88 84 78 67 56 49 51 56
57 58 62 64 65 66 65 63 64 61 51 45 48 51 51 52 52 50 48 48 51 54 56 58 60 63 66 67 65 64 64 64 64 63 61 61 62 63 62 62 63 64 65 65 62 59 60 64 66 66 64 63 64 65 64 65 66 66 67 67 68 69 71 72 73 74 76 78 79 81 83 84 85 87 88 88 88 87 84 80 72 61 52 48 50 54
60 59 61 61 60 61 62 62 60 53 45 44 50 52 49 48 50 50 50 50 54 58 62 66 68 70 71 68 66 66 66 66 65 63 61 62 63 62 61 61 63 65 66 64 61 60 62 65 66 66 64 63 64 64 64 64 65 65 66 66 67 69 70 71 72 74 75 77 79 81 82 83 85 86 87 87 86 84 80 75 67 56 49 47 49 51
64 61 61 62 61 62 64 62 58 55 54 53 51 48 48 51 53 52 51 55 62 66 69 70 70 71 71 68 67 67 67 66 65 62 62 63 62 60 61 62 64 66 66 63 61 61 63 65 67 66 64 63 63 63 63 63 64 64 65 66 67 68 69 70 71 73 75 77 78 80 81 83 84 85 85 85 83 81 77 71 63 53 47 46 48 48
64 62 63 64 64 65 66 64 62 61 60 55 51 52 56 56 53 51 55 64 70 71 71 70 70 69 68 67 66 66 66 66 65 62 61 62 61 60 61 63 65 66 65 62 61 62 63 66 67 65 63 62 62 61 62 62 63 63 64 65 66 67 68 69 70 72 74 76 77 79 81 81 82 83 82 81 79 76 72 67 60 51 45 45 46 45
63 62 62 62 62 63 64 62 59 59 58 55 56 58 57 53 52 56 65 70 70 71 71 69 68 67 66 65 66 66 66 66 65 62 60 60 61 61 62 64 66 65 63 62 62 62 64 67 67 64 62 62 61 60 61 61 62 62 63 64 65 66 67 68 70 71 73 75 76 78 80 80 80 80 79 77 73 70 67 62 57 50 46 45 44 40
64 62 62 61 59 60 60 55 53 55 54 52 55 56 53 55 62 68 71 71 70 71 71 68 67 66 66 67 68 67 67 67 66 63 61 60 60 61 63 65 65 64 62 62 62 63 65 67 65 63 61 61 60 59 60 60 61 62 62 62 63 64 65 67 68 70 72 74 76 77 78 79 78 77 75 72 67 64 61 57 52 49 46 46 44 37
73 71 68 66 65 65 60 52 50 56 54 50 53 59 60 65 71 72 71 71 71 71 70 69 67 67 68 69 69 68 68 69 67 64 61 60 60 62 64 65 65 63 62 62 62 64 66 66 64 61 60 59 58 58 59 59 60 60 61 61 62 63 64 66 67 69 71 73 75 76 77 77 77 75 72 68 62 59 58 56 50 46 45 47 47 40
85 79 74 75 78 75 63 53 54 64 65 60 62 67 66 67 70 71 70 70 70 70 70 69 67 66 67 69 69 70 71 70 68 65 62 60 60 63 65 66 64 63 62 62 63 64 65 64 61 59 58 57 57 57 58 58 58 59 59 60 61 62 63 64 66 68 70 72 73 74 75 75 74 72 69 64 58 53 54 56 53 47 44 46 48 46
92 85 82 86 88 82 71 63 66 75 78 74 72 71 66 64 68 69 68 68 69 69 69 68 67 66 67 69 71 71 70 70 69 66 62 60 62 65 67 66 64 63 63 63 64 65 64 62 59 57 56 56 55 56 57 57 57 57 58 58 59 60 61 63 64 67 69 70 71 73 73 73 72 70 66 61 55 49 47 50 51 49 45 45 48 48
Wind_Direction
297 296 296 298 298 299 300 301 303 305 305 307 307 307 307 307 307 306 306 306 306 307 310 308 306 309 314 317 317 316 316 318 316 312 309 308 307 305 304 303 301 300 299 299 298 296 297 299 300 301 301 300 300 300 301 304 306 307 308 310 312 312 311 310 309 308 306 305 304 303 302 302 301 300 300 298 296 295 293 292 293 293 294 294 293 293
296 295 294 295 296 296 297 299 301 302 304 305 306 307 308 308 307 308 307 307 307 308 310 309 306 309 313 315 317 315 315 317 314 310 309 307 305 304 304 302 301 300 300 299 298 297 299 301 302 302 302 301 300 301 303 304 306 308 310 311 311 311 310 309 307 306 305 304 304 304 303 303 303 302 301 299 297 295 294 293 294 295 295 295 294 294
294 293 292 293 294 294 295 297 298 299 301 303 304 306 307 307 307 308 308 306 307 307 309 309 306 308 311 313 317 315 315 317 312 310 311 308 305 303 302 302 301 301 302 301 299 299 301 303 303 303 302 302 301 302 303 305 307 309 310 311 311 310 309 307 305 305 305 304 304 304 304 304 304 303 302 300 298 296 295 294 295 296 296 296 295 295
292 291 291 292 292 294 295 296 296 297 298 300 303 304 305 306 306 307 307 306 306 307 309 310 307 308 310 312 316 315 316 317 311 312 313 309 306 303 301 302 302 303 303 300 299 301 303 303 303 303 302 302 302 303 304 306 307 309 310 311 310 310 308 306 304 304 304 304 304 303 304 305 305 304 303 302 300 298 297 297 298 299 298 297 297 298
291 291 291 291 292 294 294 295 294 295 296 298 300 302 303 304 305 306 307 306 307 307 310 311 309 307 307 311 317 317 318 317 313 315 314 311 307 303 300 301 303 304 303 300 300 302 302 302 302 302 302 302 303 304 305 306 308 309 310 310 310 309 307 305 303 303 304 304 304 304 305 306 306 305 303 302 300 299 299 301 302 301 300 298 298 299
291 291 291 292 293 294 294 293 292 293 295 296 297 299 301 302 303 304 305 306 307 308 310 313 312 307 305 313 321 320 320 318 316 318 317 313 308 303 300 301 303 303 302 301 302 302 302 302 302 302 303 304 305 305 306 307 309 310 310 310 310 309 307 304 303 303 304 304 304 306 307 307 306 305 303 302 300 300 300 302 303 301 300 299 300 301
292 291 290 292 293 293 293 292 290 292 294 294 295 297 298 300 301 302 303 304 306 308 309 314 313 306 305 314 321 321 322 318 317 320 318 313 309 303 301 301 301 301 301 301 302 301 301 302 302 303 304 305 306 307 308 309 310 311 311 310 310 309 307 304 303 303 304 305 306 307 308 307 307 306 304 302 301 300 301 303 303 301 301 301 302 304
292 290 290 291 291 292 292 290 290 291 292 293 295 295 296 298 298 300 301 302 305 306 308 314 312 304 305 312 318 323 321 315 318 321 317 312 308 304 301 299 299 299 300 302 301 301 302 303 303 304 306 307 308 309 310 311 312 312 311 311 310 309 306 304 303 303 305 307 307 308 308 307 306 305 304 302 302 302 303 304 303 301 301 302 304 305
290 289 290 290 291 292 291 290 290 291 291 292 294 294 295 296 296 298 299 301 304 303 308 315 309 303 304 308 316 324 318 313 318 321 315 312 308 304 300 298 298 299 300 302 302 303 304 304 305 306 308 309 310 311 311 312 312 312 312 311 310 308 305 304 303 304 307 307 307 308 308 307 306 305 304 303 303 304 305 305 303 302 302 303 305 307
289 290 290 291 292 292 291 291 290 290 291 292 292 293 294 294 295 296 297 300 301 302 309 313 307 305 304 306 316 322 315 313 318 319 315 312 307 301 297 296 298 299 301 302 303 304 305 306 307 309 310 311 311 311 312 312 312 312 312 311 309 306 305 304 304 305 308 308 307 307 307 307 306 305 304 304 304 305 305 304 303 302 303 305 307 308
288 289 291 292 293 292 292 291 291 291 291 291 291 292 293 293 294 295 296 299 299 302 308 309 306 305 303 306 317 317 312 314 317 317 317 313 306 298 295 296 299 300 301 302 304 305 306 307 310 311 312 312 312 312 312 312 312 312 311 310 307 305 305 305 305 306 308 308 307 307 307 307 306 305 304 304 305 305 305 304 303 303 304 305 308 308
288 290 291 292 292 292 291 291 291 291 290 291 291 292 293 293 294 295 296 298 299 302 307 306 305 304 302 308 315 312 311 316 318 318 317 312 303 297 296 299 300 300 301 302 305 306 308 310 313 313 313 313 313 313 312 312 312 311 310 308 306 305 305 306 306 307 308 308 307 308 307 306 305 305 305 305 306 306 305 304 304 304 304 306 308 309
288 290 291 290 291 290 290 290 291 290 290 290 291 292 292 293 295 295 296 298 299 302 305 304 303 303 304 310 312 309 312 317 318 318 315 309 302 299 300 301 300 301 302 304 306 308 311 313 314 315 314 314 313 313 312 311 311 310 308 307 306 306 306 306 306 307 308 308 308 307 306 305 305 305 306 306 307 306 306 305 305 305 305 306 308 309
288 288 288 289 288 288 288 289 289 289 289 290 291 292 292 294 296 296 297 299 300 302 303 302 303 304 306 309 308 307 312 317 317 316 313 307 302 301 301 300 300 302 304 306 308 311 314 315 315 315 314 314 312 311 311 310 309 309 307 306 306 306 306 306 307 308 309 308 307 306 305 305 305 305 306 307 307 307 306 306 305 306 306 308 309 310
288 288 288 288 286 286 286 286 287 288 289 290 291 291 292 294 295 295 297 299 299 300 301 301 303 305 306 306 306 308 313 316 316 314 310 304 301 301 301 300 301 303 306 307 310 313 315 315 315 315 314 312 311 310 309 309 308 307 306 306 306 306 306 306 308 309 308 308 307 306 305 305 306 306 307 308 308 308 307 306 306 307 308 309 310 311
286 287 288 287 285 285 285 285 286 287 288 289 289 290 292 293 293 294 296 297 297 297 299 301 303 304 304 304 306 310 313 315 314 311 306 302 301 302 301 301 303 305 308 309 311 314 315 315 314 314 312 311 310 309 308 308 307 306 305 306 306 306 306 307 309 309 308 307 306 305 305 306 306 307 308 309 309 308 307 307 307 307 309 311 312 312
284 285 286 285 284 285 285 286 286 287 288 289 289 290 291 291 293 295 295 295 296 296 299 302 303 302 303 305 309 312 314 315 312 309 305 302 303 303 302 303 306 308 310 311 313 315 314 314 314 313 311 310 308 307 307 307 306 305 305 306 307 306 307 308 309 308 307 306 305 305 305 306 307 308 309 309 309 308 308 307 308 309 311 312 313 313
282 283 283 284 285 286 287 287 287 288 289 289 289 289 290 292 294 295 295 296 296 296 299 302 302 301 303 307 312 314 314 313 310 307 304 303 304 303 303 305 308 310 310 312 314 314 313 313 313 311 310 308 307 306 306 305 305 305 306 307 306 306 308 309 308 307 306 305 305 305 306 307 308 309 310 310 310 309 308 308 309 311 312 313 313 313
281 281 282 284 286 287 287 287 288 290 290 289 288 289 291 293 294 294 295 296 296 296 298 300 300 300 303 309 314 315 313 309 308 306 302 303 304 303 304 307 309 310 311 313 313 312 313 313 312 310 308 307 306 305 305 305 305 306 307 307 307 307 308 308 307 306 305 304 304 305 307 308 309 310 310 311 310 309 309 310 311 312 313 313 314 313
280 281 284 287 287 287 286 288 291 291 289 287 288 291 293 294 294 294 293 294 295 296 297 298 298 299 303 310 314 313 308 307 307 303 301 304 304 302 304 307 308 310 312 312 312 312 313 312 310 309 307 305 305 305 305 304 305 306 307 307 307 308 308 307 306 305 304 304 305 306 307 308 309 310 311 311 310 310 310 311 312 313 313 314 314 314
283 284 287 289 287 287 289 291 290 288 286 287 290 293 293 293 293 292 292 294 295 296 296 296 297 300 306 313 315 310 305 305 304 302 303 304 302 302 304 306 309 312 312 312 312 312 312 310 309 308 306 305 304 304 304 304 306 306 307 308 307 307 306 306 305 304 304 305 306 307 308 309 310 311 311 311 310 311 312 313 313 314 314 314 314 314
286 287 288 287 287 288 290 289 287 286 286 288 290 293 293 292 291 291 292 294 294 294 295 295 296 302 310 315 312 305 302 303 303 302 303 302 300 302 305 308 311 311 311 311 311 311 310 309 307 306 304 303 302 302 304 305 306 307 308 308 307 307 306 305 304 304 304 305 306 307 308 309 311 311 311 311 311 312 313 313 314 314 314 314 315 315
287 286 286 286 287 288 287 286 286 286 287 289 291 292 291 290 291 292 292 292 292 292 293 294 296 303 313 315 307 301 301 304 304 303 302 300 300 303 306 309 310 310 310 310 310 309 308 307 306 304 302 301 301 302 304 306 307 308 307 307 307 306 305 304 304 304 305 306 307 308 309 310 311 311 311 311 312 313 313 314 314 314 314 315 315 315
284 283 284 285 286 285 284 284 284 285 287 290 291 290 289 291 292 291 291 291 291 291 293 294 295 302 312 309 301 300 303 306 305 303 301 300 302 305 307 309 309 309 309 308 307 307 305 304 303 301 299 299 301 304 306 307 308 307 307 306 306 306 304 304 304 304 305 306 308 309 310 311 311 311 311 312 312 313 314 314 314 314 315 315 316 316
282 282 283 284 283 282 282 283 284 287 289 289 288 288 290 292 291 290 290 290 289 291 295 293 293 302 310 303 300 303 305 306 305 301 301 302 304 306 307 308 308 308 307 306 305 304 302 301 300 298 297 300 303 306 308 308 308 307 306 306 306 305 304 303 304 304 306 307 309 310 311 311 311 311 312 312 313 314 314 314 314 314 315 316 316 316
281 281 282 282 281 281 283 284 286 287 287 287 288 290 290 290 290 289 288 287 289 293 294 290 293 301 304 300 303 306 305 305 303 301 302 304 305 307 307 306 306 306 305 304 303 301 300 299 297 296 298 302 306 308 309 309 308 307 306 306 305 304 304 304 304 305 307 308 310 311 311 311 311 312 312 313 313 314 314 314 314 315 316 316 316 317
280 279 279 279 279 280 283 285 285 285 285 286 289 290 290 290 289 286 285 287 291 293 290 289 296 300 299 301 305 306 304 303 302 301 304 305 306 307 306 305 305 304 303 302 300 299 297 296 295 297 301 305 309 310 310 309 308 307 306 305 304 304 304 304 305 306 308 309 310 311 311 311 312 312 313 313 314 314 314 315 315 316 316 316 317 317
278 277 278 278 279 281 283 284 283 283 284 286 287 288 289 288 285 283 284 288 290 289 287 291 297 297 297 303 307 306 303 301 302 304 306 306 306 306 305 304 304 303 301 300 298 296 295 294 296 300 304 309 311 310 310 309 308 306 305 304 304 304 305 306 307 308 309 310 311 311 311 312 312 313 313 313 314 314 315 315 316 316 317 317 318 318
275 276 279 281 280 282 284 284 283 282 283 284 285 287 287 285 283 282 284 286 286 285 287 292 294 293 297 306 308 304 301 302 304 306 306 306 306 305 304 304 302 301 299 298 295 293 293 295 299 304 308 311 312 311 310 308 307 306 305 304 305 305 306 307 308 310 310 311 311 311 312 312 312 313 313 314 314 315 315 316 316 317 317 318 319 318
276 279 283 282 281 283 286 286 284 282 283 283 284 286 285 282 281 283 285 287 286 285 288 292 292 291 299 308 306 302 302 304 306 306 306 307 305 304 304 303 301 299 297 295 293 292 294 298 303 307 310 312 312 310 309 307 306 305 304 305 306 307 308 308 310 310 310 310 311 311 312 313 313 313 314 314 315 315 317 317 317 318 318 319 319 318
278 281 284 283 283 285 288 287 284 283 283 282 283 286 284 281 283 285 286 286 284 285 289 292 291 294 303 307 303 302 304 304 305 307 307 306 304 303 303 302 300 298 295 292 292 293 297 301 305 308 310 312 311 309 308 306 305 305 305 306 307 308 309 310 310 310 310 310 311 312 312 313 313 314 314 314 315 316 317 318 318 318 319 320 319 318
280 283 286 285 284 286 288 286 284 284 282 279 283 288 286 283 283 283 282 281 283 287 290 291 293 299 307 305 302 303 304 304 306 307 306 305 304 303 302 301 299 296 293 292 292 295 299 303 306 309 311 311 310 308 307 305 305 305 306 307 308 309 309 310 310 310 310 310 311 312 312 313 314 314 314 315 316 317 318 318 319 320 320 320 318 318
282 286 287 285 283 285 286 284 284 283 278 279 287 291 286 280 278 278 278 281 284 287 290 292 297 303 306 304 302 303 303 304 307 306 305 304 303 302 302 300 298 295 292 292 294 298 301 304 308 311 311 310 308 307 306 305 305 306 307 308 308 309 310 310 309 309 310 311 311 312 313 313 314 314 315 316 317 318 319 319 320 320 320 319 319 318
283 285 284 281 281 283 284 283 283 279 276 283 291 289 278 274 275 278 281 283 286 289 291 294 298 301 303 301 300 301 302 304 305 305 305 304 303 302 301 299 297 294 292 293 296 299 302 306 310 311 310 308 307 306 306 306 305 306 307 308 308 309 309 309 309 309 310 311 312 313 313 314 314 314 315 317 318 319 319 320 321 321 320 319 319 318
281 281 280 280 280 282 282 281 279 276 279 287 288 279 275 277 280 283 283 283 287 290 290 292 295 297 298 297 298 300 302 304 305 307 308 306 303 301 299 297 295 292 291 294 297 301 305 309 311 310 309 307 306 306 306 306 305 306 307 308 309 309 309 309 309 310 311 311 312 313 314 314 314 315 316 318 318 319 320 321 321 321 319 319 320 318
278 277 278 278 278 279 280 279 278 279 282 283 280 280 282 283 283 283 281 284 288 288 288 290 292 292 294 296 298 300 301 304 306 308 308 305 303 301 298 295 292 290 292 296 299 304 308 310 310 309 307 306 305 306 306 305 305 306 308 309 309 309 309 309 310 311 311 312 313 313 314 314 315 316 317 318 319 320 321 321 321 320 319 320 320 317
274 274 276 276 276 278 280 280 280 281 280 279 282 285 284 282 282 282 281 285 288 287 286 286 286 289 294 296 298 300 301 303 306 308 305 303 303 301 296 291 289 291 294 298 303 307 309 309 308 307 306 305 305 305 305 305 306 307 308 309 309 309 309 310 310 311 312 312 313 314 314 315 316 317 318 319 320 321 322 322 322 320 320 321 320 317
272 272 274 275 275 277 279 279 279 279 280 282 284 281 278 278 281 281 280 284 288 285 280 281 284 291 295 296 298 300 301 304 307 307 304 303 303 299 292 290 291 293 296 301 306 309 308 307 307 306 305 304 304 305 304 305 306 307 308 309 309 309 309 310 311 311 312 313 313 314 314 315 316 318 319 320 321 321 322 323 322 321 322 322 320 318
271 271 272 273 274 276 278 279 278 279 281 285 283 278 276 279 282 279 276 280 285 279 276 282 291 295 296 296 298 300 301 305 307 306 304 304 302 296 293 293 294 297 301 306 308 309 307 306 306 306 304 303 303 304 304 305 306 307 308 309 309 309 310 310 311 311 312 313 313 314 315 316 317 319 320 321 322 322 323 323 322 323 324 323 321 320
270 271 271 271 273 276 277 278 278 279 282 284 282 279 279 281 280 274 271 278 282 276 279 289 295 296 295 296 299 300 301 304 305 303 303 303 300 296 296 296 297 301 305 308 309 307 304 304 306 306 303 302 303 303 304 305 306 307 308 309 309 309 309 310 311 311 312 313 314 314 315 317 318 320 321 322 323 323 324 324 323 324 325 324 322 322
270 270 270 270 272 274 275 277 278 278 281 283 281 279 280 277 272 268 272 280 282 280 287 294 295 295 297 299 301 302 301 301 302 302 302 301 298 297 296 297 300 304 307 309 309 306 302 303 305 305 303 302 302 303 304 305 306 307 308 308 309 309 309 310 311 312 312 313 314 315 316 318 320 321 322 323 324 324 325 325 324 325 326 324 324 323
270 270 269 270 271 271 273 276 277 278 283 285 280 276 272 268 268 273 277 280 283 289 295 295 294 298 302 303 304 302 300 300 301 301 301 299 297 297 297 299 302 305 308 310 309 305 301 302 304 305 302 301 302 303 304 305 305 306 307 308 308 308 309 310 311 312 313 314 315 316 317 319 320 322 323 324 325 325 325 325 325 326 326 324 325 325
268 268 268 268 269 271 272 273 274 280 287 282 271 269 269 270 274 278 278 280 289 295 296 295 297 302 305 305 303 301 300 300 300 300 300 299 297 297 298 300 303 306 309 310 308 304 301 302 304 303 301 300 302 303 303 304 305 306 307 307 307 308 308 309 311 312 313 314 316 317 318 320 321 323 324 325 325 326 326 326 326 326 325 324 325 325
264 263 266 268 268 269 269 270 271 277 281 273 266 268 272 274 276 275 275 284 293 295 295 298 301 303 304 304 302 300 300 299 298 300 301 298 297 297 298 302 305 306 308 309 307 303 301 302 303 302 300 300 302 302 303 304 304 305 306 306 306 307 308 309 311 312 314 315 316 318 319 321 323 324 325 326 326 326 326 326 326 325 323 323 325 326
263 261 265 266 265 263 264 266 266 268 270 271 270 268 269 273 275 272 275 286 294 296 298 300 301 301 302 301 300 299 299 298 298 301 301 297 295 296 300 304 305 306 308 308 306 303 302 302 302 300 299 300 301 301 302 303 303 304 304 305 306 307 308 309 311 312 314 315 317 319 320 322 324 325 326 327 327 326 326 326 326 324 322 321 324 327
263 262 263 263 264 264 263 263 264 265 267 269 268 264 266 272 275 274 280 290 295 297 298 299 299 300 299 299 298 298 297 297 298 300 300 296 293 296 301 304 305 306 308 308 305 303 302 302 301 299 298 299 300 301 301 302 302 303 303 304 305 306 308 310 311 313 315 316 318 319 321 323 325 327 327 327 327 326 326 326 325 323 321 321 323 327
263 262 263 263 264 266 265 264 265 266 266 266 265 265 268 275 279 284 290 294 295 296 296 297 298 297 296 297 297 297 296 296 297 300 299 293 292 297 302 303 304 305 307 308 305 303 301 301 299 298 297 299 299 300 300 301 301 301 302 303 305 306 308 310 311 313 315 317 319 320 322 325 327 328 328 328 327 326 325 325 325 322 320 320 322 325
264 262 264 265 265 266 265 263 263 266 267 267 269 272 276 283 287 291 293 293 294 295 295 295 295 295 295 296 295 295 296 296 297 299 297 290 292 298 301 302 304 306 307 308 305 302 300 299 297 296 297 298 298 299 299 300 300 300 302 303 304 306 308 310 312 314 316 318 319 321 324 326 328 330 330 328 327 325 324 324 324 321 319 321 323 324
268 265 265 268 270 269 264 259 262 270 273 273 276 281 286 289 290 290 290 291 292 293 293 293 292 292 294 294 293 292 294 295 297 298 295 290 292 298 300 302 304 306 307 307 303 300 299 297 295 295 296 297 297 298 298 298 299 300 301 303 305 307 309 311 313 315 317 319 321 323 325 328 330 331 331 329 327 325 325 325 324 321 320 323 327 327
269 268 267 270 272 271 266 261 267 275 277 276 280 287 289 288 287 286 287 289 290 290 290 290 289 289 291 291 290 291 292 294 296 297 293 289 293 298 301 302 304 306 307 304 301 299 297 295 294 294 295 295 296 296 296 297 298 299 301 303 305 307 309 312 314 316 318 320 322 324 327 329 331 332 332 330 328 326 326 327 326 324 322 324 327 329
269 269 270 270 272 272 271 270 272 276 278 278 282 287 288 285 285 285 286 287 287 287 288 287 287 289 290 289 289 290 291 293 295 295 290 289 294 299 301 302 304 306 305 302 300 298 295 293 293 293 294 294 295 295 295 296 298 299 301 303 305 308 310 313 315 317 319 322 324 326 329 331 332 332 332 330 328 325 326 327 327 326 325 324 325 327
Height
5838 5836 5835 5834 5832 5830 5829 5827 5826 5824 5822 5821 5819 5818 5817 5815 5814 5814 5809 5806 5803 5800 5802 5800 5793 5793 5796 5796 5793 5788 5786 5784 5781 5778 5775 5773 5770 5768 5766 5763 5760 5758 5757 5755 5753 5751 5749 5748 5747 5745 5742 5740 5737 5735 5732 5730 5728 5725 5722 5719 5716 5713 5709 5706 5702 5699 5696 5692 5690 5686 5682 5679 5675 5670 5666 5660 5655 5650 5645 5640 5637 5633 5631 5628 5625 5622
5835 5833 5831 5830 5829 5827 5825 5824 5822 5820 5819 5817 5815 5814 5813 5810 5808 5808 5806 5802 5799 5796 5797 5795 5788 5788 5791 5792 5790 5785 5782 5781 5777 5774 5771 5769 5766 5763 5760 5758 5755 5753 5752 5750 5747 5745 5744 5743 5741 5739 5736 5734 5731 5729 5726 5724 5721 5718 5715 5712 5709 5705 5702 5698 5694 5691 5688 5684 5681 5678 5675 5671 5667 5662 5658 5653 5648 5643 5638 5632 5628 5624 5621 5618 5615 5612
5831 5829 5827 5827 5825 5824 5822 5820 5818 5817 5815 5814 5812 5809 5808 5806 5803 5803 5801 5798 5795 5792 5791 5790 5784 5784 5787 5788 5787 5783 5780 5778 5773 5770 5768 5765 5762 5758 5755 5752 5750 5748 5746 5744 5741 5740 5739 5737 5735 5733 5730 5728 5725 5722 5720 5717 5714 5711 5707 5704 5701 5698 5694 5690 5686 5682 5679 5676 5672 5669 5666 5662 5658 5654 5649 5644 5639 5634 5629 5624 5619 5615 5612 5608 5605 5601
5828 5826 5824 5823 5821 5820 5818 5816 5814 5812 5811 5810 5808 5805 5803 5802 5798 5796 5796 5793 5791 5788 5786 5784 5777 5777 5782 5784 5784 5779 5776 5773 5767 5765 5764 5760 5757 5753 5750 5747 5744 5743 5741 5738 5735 5734 5733 5731 5729 5726 5724 5721 5718 5716 5713 5710 5706 5703 5699 5696 5693 5689 5686 5681 5677 5673 5670 5667 5664 5660 5657 5653 5648 5644 5639 5635 5629 5623 5619 5614 5609 5605 5601 5598 5594 5591
5824 5822 5820 5819 5818 5816 5814 5812 5810 5807 5807 5806 5804 5801 5798 5797 5794 5791 5789 5786 5785 5783 5782 5779 5770 5766 5773 5780 5781 5776 5772 5768 5762 5760 5758 5754 5751 5747 5744 5741 5739 5737 5735 5732 5730 5729 5727 5725 5722 5720 5717 5714 5712 5709 5706 5703 5699 5696 5692 5688 5685 5681 5677 5673 5669 5665 5662 5659 5656 5652 5648 5643 5638 5634 5628 5624 5619 5612 5607 5602 5598 5594 5590 5587 5584 5581
5821 5818 5815 5814 5813 5812 5810 5808 5805 5802 5802 5802 5801 5798 5794 5792 5790 5787 5784 5780 5778 5776 5777 5777 5767 5755 5758 5771 5775 5771 5766 5761 5756 5755 5752 5748 5744 5740 5738 5736 5733 5731 5728 5726 5725 5723 5721 5718 5716 5713 5710 5708 5705 5702 5699 5696 5692 5688 5684 5680 5677 5673 5669 5665 5661 5657 5654 5651 5647 5644 5640 5636 5631 5626 5620 5614 5609 5605 5599 5594 5589 5585 5580 5577 5574 5570
5817 5814 5811 5810 5808 5807 5806 5804 5801 5798 5797 5797 5797 5794 5790 5788 5786 5783 5781 5777 5773 5770 5770 5775 5767 5748 5745 5759 5767 5765 5761 5755 5751 5750 5746 5742 5738 5734 5732 5730 5727 5725 5722 5721 5719 5716 5714 5712 5709 5706 5704 5701 5698 5695 5691 5688 5685 5681 5677 5672 5668 5665 5660 5656 5652 5649 5645 5642 5638 5634 5630 5626 5622 5618 5612 5605 5599 5595 5591 5587 5581 5576 5571 5566 5562 5558
5811 5809 5807 5806 5804 5803 5801 5799 5796 5794 5792 5791 5791 5789 5786 5784 5781 5779 5776 5773 5770 5765 5764 5771 5767 5748 5740 5750 5758 5760 5756 5750 5747 5746 5741 5736 5733 5729 5727 5724 5721 5719 5717 5716 5713 5710 5708 5705 5703 5700 5697 5694 5690 5687 5684 5680 5676 5673 5668 5664 5660 5656 5652 5648 5644 5640 5636 5633 5629 5624 5620 5615 5610 5606 5602 5596 5589 5583 5579 5576 5572 5568 5563 5557 5551 5546
5805 5803 5802 5801 5799 5798 5796 5794 5791 5789 5787 5786 5785 5783 5781 5779 5776 5775 5771 5769 5767 5760 5760 5766 5761 5746 5738 5743 5752 5754 5749 5743 5742 5741 5736 5732 5728 5724 5722 5718 5715 5713 5712 5710 5707 5704 5702 5699 5696 5693 5690 5686 5683 5679 5676 5672 5668 5664 5660 5656 5651 5648 5644 5639 5635 5631 5627 5623 5619 5614 5610 5606 5600 5594 5589 5584 5579 5574 5569 5566 5562 5558 5554 5549 5543 5536
5799 5798 5797 5796 5795 5793 5791 5788 5786 5785 5782 5781 5779 5777 5775 5773 5770 5769 5766 5765 5762 5754 5756 5760 5753 5742 5733 5737 5748 5748 5742 5738 5737 5735 5731 5726 5722 5718 5715 5712 5710 5708 5706 5704 5701 5698 5696 5692 5689 5686 5682 5678 5675 5671 5667 5663 5660 5655 5652 5648 5643 5639 5635 5631 5627 5623 5618 5613 5609 5604 5600 5595 5589 5583 5578 5573 5569 5564 5559 5556 5553 5548 5544 5539 5534 5528
5794 5793 5792 5790 5789 5787 5785 5783 5781 5779 5777 5775 5773 5771 5769 5766 5764 5763 5760 5760 5756 5750 5752 5752 5746 5738 5727 5730 5741 5740 5735 5733 5731 5729 5725 5720 5716 5711 5708 5706 5703 5702 5699 5697 5694 5692 5688 5685 5682 5678 5674 5670 5666 5663 5659 5655 5651 5647 5644 5640 5635 5631 5627 5623 5619 5614 5609 5604 5599 5594 5589 5583 5578 5572 5567 5563 5559 5554 5550 5547 5543 5538 5534 5529 5524 5518
5789 5788 5787 5786 5784 5782 5779 5777 5775 5773 5771 5769 5767 5765 5763 5759 5758 5757 5755 5755 5750 5746 5747 5744 5739 5733 5723 5725 5733 5730 5728 5728 5724 5722 5718 5714 5708 5704 5702 5699 5696 5694 5692 5690 5687 5684 5681 5677 5674 5670 5666 5662 5658 5655 5651 5647 5643 5640 5636 5632 5628 5623 5618 5614 5610 5605 5600 5594 5589 5583 5578 5572 5566 5561 5556 5552 5548 5544 5540 5536 5532 5528 5523 5520 5515 5508
5784 5783 5781 5780 5780 5777 5774 5772 5770 5767 5766 5764 5762 5760 5756 5752 5751 5750 5748 5747 5744 5742 5740 5736 5732 5727 5720 5722 5725 5720 5721 5722 5718 5715 5711 5705 5701 5697 5696 5692 5689 5687 5685 5683 5680 5676 5674 5670 5666 5662 5658 5655 5651 5647 5643 5639 5636 5632 5629 5625 5620 5615 5610 5605 5601 5595 5590 5584 5578 5572 5567 5561 5555 5550 5545 5541 5537 5533 5528 5524 5521 5517 5512 5509 5505 5498
5777 5778 5776 5775 5774 5772 5769 5766 5764 5762 5760 5758 5757 5754 5750 5747 5744 5741 5741 5739 5736 5736 5732 5726 5724 5721 5716 5717 5716 5713 5716 5715 5712 5708 5702 5697 5693 5691 5689 5685 5682 5681 5679 5676 5673 5669 5666 5662 5658 5655 5651 5647 5644 5640 5636 5632 5629 5625 5621 5617 5613 5607 5602 5597 5592 5586 5581 5574 5568 5562 5556 5551 5545 5540 5536 5531 5527 5523 5518 5514 5510 5505 5500 5496 5492 5487
5769 5769 5771 5769 5767 5765 5763 5761 5759 5756 5754 5753 5752 5748 5745 5744 5738 5734 5736 5732 5728 5729 5726 5720 5717 5715 5712 5711 5709 5708 5710 5709 5705 5701 5695 5689 5686 5685 5682 5678 5676 5675 5673 5669 5666 5662 5659 5655 5651 5648 5644 5641 5637 5633 5629 5625 5622 5618 5614 5609 5605 5600 5594 5589 5583 5578 5572 5565 5558 5552 5546 5541 5535 5530 5526 5521 5516 5512 5508 5504 5499 5495 5489 5483 5479 5475
5762 5762 5763 5761 5759 5758 5756 5755 5753 5751 5750 5748 5746 5742 5739 5738 5733 5728 5730 5728 5722 5720 5720 5716 5711 5709 5707 5705 5704 5704 5703 5702 5698 5693 5688 5682 5680 5679 5675 5671 5670 5668 5666 5662 5659 5656 5652 5648 5645 5641 5637 5634 5630 5626 5622 5618 5614 5610 5606 5602 5597 5592 5586 5581 5576 5569 5563 5556 5550 5543 5537 5532 5526 5521 5516 5512 5507 5502 5498 5493 5489 5484 5479 5472 5466 5461
5756 5756 5756 5753 5751 5750 5748 5747 5746 5745 5744 5742 5739 5737 5733 5731 5727 5723 5721 5720 5716 5711 5712 5711 5703 5700 5701 5699 5700 5699 5695 5693 5689 5683 5679 5675 5674 5672 5667 5664 5664 5662 5658 5655 5652 5649 5645 5641 5637 5634 5630 5626 5623 5619 5614 5610 5607 5603 5599 5595 5589 5584 5578 5573 5567 5561 5554 5548 5541 5535 5528 5522 5517 5512 5507 5502 5498 5493 5489 5484 5478 5473 5468 5461 5454 5448
5750 5750 5750 5746 5742 5742 5741 5738 5738 5738 5738 5735 5732 5730 5727 5723 5721 5717 5712 5710 5707 5700 5701 5704 5697 5692 5693 5693 5694 5692 5687 5684 5679 5674 5671 5669 5667 5664 5660 5658 5657 5654 5651 5648 5645 5642 5638 5634 5630 5626 5623 5619 5615 5611 5607 5603 5599 5595 5591 5587 5582 5577 5571 5565 5559 5553 5546 5540 5533 5526 5520 5513 5508 5503 5498 5493 5489 5484 5479 5474 5468 5462 5457 5451 5443 5436
5743 5742 5743 5742 5737 5736 5734 5730 5730 5731 5730 5727 5724 5723 5721 5717 5713 5710 5705 5701 5697 5690 5689 5692 5691 5686 5686 5688 5689 5686 5680 5674 5671 5667 5664 5663 5661 5656 5653 5652 5650 5647 5644 5641 5638 5635 5631 5627 5623 5619 5615 5611 5607 5603 5600 5596 5592 5588 5583 5579 5574 5569 5563 5557 5551 5545 5539 5532 5526 5519 5512 5505 5499 5494 5489 5484 5479 5474 5469 5464 5459 5452 5446 5440 5432 5424
5736 5733 5735 5736 5732 5728 5726 5725 5725 5724 5721 5717 5716 5717 5715 5710 5705 5701 5698 5694 5689 5684 5679 5679 5682 5682 5681 5684 5685 5680 5673 5667 5664 5661 5659 5657 5654 5650 5647 5646 5644 5641 5638 5635 5631 5627 5624 5619 5615 5612 5607 5604 5600 5596 5593 5590 5585 5581 5576 5571 5566 5560 5554 5549 5543 5537 5531 5523 5517 5510 5504 5497 5491 5485 5480 5475 5469 5465 5460 5454 5448 5442 5436 5429 5422 5413
5727 5724 5726 5727 5723 5719 5719 5719 5718 5715 5712 5709 5710 5711 5708 5704 5698 5691 5690 5689 5684 5677 5671 5666 5668 5674 5677 5679 5679 5673 5667 5662 5659 5656 5654 5652 5647 5644 5643 5641 5638 5635 5631 5627 5624 5620 5616 5613 5608 5605 5601 5597 5594 5590 5586 5583 5578 5573 5569 5563 5558 5552 5546 5541 5535 5529 5522 5515 5508 5502 5496 5490 5484 5478 5472 5467 5461 5455 5450 5444 5438 5432 5425 5419 5411 5403
5718 5716 5716 5716 5713 5712 5712 5711 5708 5705 5703 5703 5705 5705 5702 5698 5692 5683 5681 5683 5679 5672 5664 5657 5655 5661 5671 5674 5670 5665 5659 5657 5655 5651 5649 5645 5641 5638 5637 5634 5631 5627 5624 5620 5617 5613 5609 5605 5601 5597 5594 5590 5587 5583 5579 5575 5571 5565 5561 5555 5550 5544 5538 5533 5527 5520 5514 5508 5501 5494 5488 5482 5476 5470 5465 5459 5453 5447 5441 5436 5429 5422 5415 5409 5401 5393
5710 5707 5706 5705 5705 5705 5703 5701 5698 5696 5695 5696 5698 5698 5694 5690 5686 5678 5672 5671 5672 5666 5660 5654 5646 5648 5662 5666 5660 5655 5653 5651 5649 5646 5642 5638 5635 5633 5630 5627 5624 5620 5617 5614 5610 5607 5602 5598 5594 5590 5587 5584 5580 5577 5572 5568 5563 5557 5552 5547 5542 5536 5529 5523 5518 5512 5506 5500 5493 5486 5480 5474 5468 5463 5457 5451 5445 5440 5433 5427 5420 5413 5406 5399 5391 5384
5702 5698 5697 5696 5697 5695 5693 5693 5691 5688 5689 5690 5690 5689 5685 5683 5680 5672 5663 5660 5659 5656 5654 5649 5637 5639 5655 5657 5649 5646 5645 5645 5643 5638 5635 5631 5628 5627 5623 5620 5617 5613 5610 5607 5603 5599 5595 5591 5588 5583 5580 5578 5574 5570 5565 5560 5555 5549 5544 5539 5533 5527 5521 5515 5509 5503 5497 5492 5485 5478 5471 5466 5461 5455 5449 5443 5437 5432 5426 5419 5412 5404 5396 5389 5381 5374
5692 5690 5689 5687 5686 5685 5685 5685 5684 5683 5683 5681 5681 5680 5678 5677 5672 5662 5656 5651 5645 5647 5649 5639 5626 5633 5647 5645 5640 5640 5636 5636 5636 5629 5626 5625 5622 5620 5617 5612 5610 5606 5603 5600 5595 5592 5588 5584 5581 5577 5574 5571 5567 5562 5557 5551 5547 5541 5536 5530 5524 5519 5513 5506 5501 5495 5489 5484 5477 5470 5464 5458 5453 5447 5441 5435 5429 5423 5417 5410 5403 5395 5387 5379 5372 5364
5683 5682 5682 5678 5675 5675 5677 5678 5677 5676 5674 5671 5671 5673 5671 5670 5665 5655 5648 5642 5636 5639 5642 5631 5619 5626 5637 5635 5632 5633 5627 5626 5626 5621 5618 5618 5614 5612 5609 5605 5603 5599 5595 5592 5588 5584 5581 5577 5574 5571 5568 5564 5559 5554 5549 5544 5539 5533 5527 5522 5516 5511 5505 5499 5493 5487 5481 5475 5469 5463 5456 5450 5444 5438 5433 5427 5421 5415 5408 5401 5394 5386 5378 5370 5363 5355
5674 5673 5674 5670 5665 5666 5670 5673 5670 5665 5663 5662 5663 5664 5662 5660 5657 5646 5637 5634 5632 5628 5626 5625 5621 5618 5624 5628 5627 5624 5620 5616 5615 5613 5611 5610 5607 5604 5601 5598 5596 5592 5587 5584 5580 5577 5574 5570 5567 5565 5561 5557 5552 5547 5542 5536 5531 5525 5519 5513 5508 5502 5497 5491 5485 5479 5473 5467 5460 5454 5449 5442 5436 5430 5424 5419 5413 5406 5399 5392 5384 5376 5369 5361 5352 5344
5663 5661 5665 5662 5657 5659 5663 5665 5661 5654 5654 5656 5654 5654 5653 5652 5646 5636 5628 5630 5630 5619 5611 5621 5625 5612 5611 5623 5621 5615 5612 5609 5607 5605 5603 5601 5599 5596 5594 5591 5588 5584 5580 5577 5573 5570 5566 5564 5561 5558 5554 5550 5544 5539 5534 5528 5523 5517 5511 5506 5500 5494 5489 5483 5477 5470 5464 5458 5452 5446 5440 5434 5428 5422 5416 5410 5404 5397 5390 5382 5374 5366 5359 5351 5342 5333
5650 5649 5657 5655 5648 5650 5654 5654 5651 5645 5644 5646 5646 5646 5645 5641 5635 5628 5623 5626 5624 5611 5605 5615 5619 5608 5608 5617 5614 5606 5602 5599 5599 5598 5595 5593 5591 5588 5586 5583 5580 5576 5573 5570 5566 5563 5560 5557 5555 5551 5547 5542 5537 5531 5525 5520 5515 5509 5503 5498 5492 5486 5481 5475 5469 5462 5455 5449 5444 5438 5432 5426 5420 5413 5407 5401 5395 5389 5381 5373 5365 5357 5349 5340 5331 5321
5639 5640 5649 5646 5637 5640 5644 5643 5640 5636 5633 5633 5637 5640 5635 5628 5627 5623 5619 5620 5616 5605 5604 5608 5606 5604 5610 5612 5605 5599 5594 5591 5591 5590 5587 5586 5583 5579 5578 5575 5572 5569 5566 5563 5559 5556 5553 5550 5547 5544 5539 5534 5529 5522 5517 5511 5506 5501 5495 5490 5484 5478 5472 5466 5460 5454 5448 5442 5437 5431 5425 5419 5412 5405 5399 5392 5386 5379 5372 5364 5355 5347 5339 5330 5320 5310
5631 5632 5639 5635 5626 5630 5637 5633 5627 5626 5622 5620 5626 5633 5627 5620 5620 5619 5614 5613 5608 5600 5601 5602 5594 5597 5608 5606 5596 5593 5590 5586 5584 5583 5580 5578 5574 5571 5570 5567 5564 5561 5558 5555 5552 5549 5546 5543 5539 5535 5531 5525 5520 5514 5508 5503 5498 5492 5487 5481 5475 5469 5463 5457 5452 5446 5440 5435 5429 5424 5418 5412 5405 5398 5390 5384 5377 5370 5362 5354 5346 5337 5329 5320 5309 5299
5624 5623 5629 5625 5614 5619 5629 5623 5616 5616 5612 5609 5617 5625 5623 5617 5614 5612 5608 5606 5602 5596 5596 5593 5587 5590 5600 5596 5589 5587 5585 5580 5579 5576 5573 5570 5566 5563 5561 5558 5556 5553 5550 5547 5545 5542 5539 5535 5531 5526 5522 5516 5510 5505 5500 5494 5489 5484 5479 5473 5467 5461 5455 5449 5444 5439 5433 5428 5423 5417 5411 5405 5398 5391 5383 5376 5369 5362 5354 5346 5337 5328 5320 5310 5299 5289
5617 5615 5618 5615 5605 5609 5617 5612 5607 5608 5600 5600 5612 5619 5617 5611 5605 5602 5602 5600 5598 5592 5587 5584 5583 5586 5588 5585 5580 5580 5577 5574 5573 5570 5565 5562 5559 5556 5553 5550 5548 5545 5543 5539 5537 5534 5531 5527 5523 5518 5512 5507 5502 5497 5492 5486 5481 5476 5472 5466 5460 5454 5448 5442 5437 5432 5426 5421 5416 5410 5404 5398 5391 5384 5376 5369 5361 5354 5346 5338 5329 5319 5310 5300 5290 5280
5612 5608 5607 5605 5597 5597 5604 5603 5598 5595 5590 5595 5609 5611 5606 5602 5597 5595 5596 5596 5593 5587 5579 5577 5578 5580 5579 5575 5572 5570 5569 5567 5565 5562 5559 5555 5551 5548 5545 5543 5540 5537 5535 5532 5529 5526 5523 5518 5514 5509 5503 5498 5493 5488 5483 5478 5473 5469 5464 5459 5453 5447 5442 5436 5430 5425 5419 5414 5409 5403 5397 5391 5384 5377 5370 5362 5354 5346 5338 5330 5321 5311 5301 5291 5280 5271
5604 5601 5598 5597 5591 5587 5592 5593 5584 5580 5585 5595 5601 5600 5597 5594 5592 5588 5587 5588 5589 5582 5574 5571 5571 5573 5572 5567 5564 5561 5560 5559 5557 5554 5552 5548 5544 5541 5538 5536 5534 5531 5528 5525 5521 5518 5514 5510 5505 5500 5494 5489 5485 5480 5475 5470 5466 5461 5456 5452 5446 5440 5435 5429 5423 5417 5412 5406 5401 5396 5390 5384 5377 5370 5363 5355 5347 5339 5331 5322 5313 5303 5293 5282 5272 5264
5597 5594 5589 5588 5585 5579 5580 5580 5571 5570 5582 5590 5591 5591 5590 5587 5584 5579 5575 5580 5584 5577 5570 5566 5564 5564 5563 5559 5557 5554 5551 5551 5550 5547 5544 5541 5537 5535 5532 5530 5527 5524 5521 5517 5513 5510 5506 5502 5497 5492 5486 5481 5477 5473 5468 5463 5458 5454 5449 5444 5439 5433 5427 5421 5415 5410 5404 5399 5394 5388 5382 5377 5370 5363 5356 5348 5340 5332 5324 5315 5306 5295 5284 5275 5266 5257
5589 5585 5582 5578 5575 5573 5570 5567 5563 5562 5570 5582 5588 5587 5582 5577 5575 5569 5563 5570 5578 5573 5564 5560 5556 5556 5556 5552 5550 5548 5544 5543 5543 5541 5537 5533 5531 5528 5526 5523 5520 5517 5514 5510 5506 5502 5498 5493 5489 5483 5478 5474 5469 5465 5461 5456 5451 5447 5442 5437 5431 5425 5420 5414 5409 5403 5397 5392 5386 5381 5375 5368 5363 5357 5349 5341 5333 5325 5317 5308 5298 5287 5276 5267 5259 5252
5580 5576 5576 5570 5564 5566 5562 5557 5556 5551 5557 5575 5584 5579 5574 5569 5567 5562 5553 5558 5571 5568 5556 5552 5551 5550 5549 5546 5543 5541 5538 5536 5536 5534 5529 5525 5524 5522 5519 5516 5513 5510 5507 5503 5499 5495 5490 5485 5480 5475 5471 5467 5462 5458 5453 5449 5444 5440 5435 5430 5424 5418 5413 5407 5402 5397 5391 5385 5379 5373 5368 5361 5355 5349 5342 5334 5325 5317 5309 5300 5289 5278 5268 5259 5252 5246
5571 5568 5569 5561 5555 5558 5554 5548 5546 5542 5549 5567 5572 5567 5566 5562 5559 5555 5545 5548 5562 5560 5548 5546 5547 5544 5542 5539 5537 5534 5530 5528 5528 5527 5523 5519 5518 5515 5512 5509 5506 5502 5499 5495 5491 5486 5482 5477 5473 5467 5463 5459 5455 5451 5446 5442 5438 5433 5427 5422 5417 5412 5406 5401 5396 5390 5385 5379 5373 5366 5361 5355 5348 5341 5334 5327 5318 5308 5300 5291 5280 5270 5261 5252 5246 5240
5563 5561 5559 5551 5548 5551 5546 5539 5536 5535 5544 5560 5560 5556 5556 5553 5551 5546 5537 5541 5552 5548 5541 5542 5540 5537 5535 5533 5530 5527 5523 5521 5520 5518 5516 5514 5511 5508 5505 5502 5498 5494 5490 5485 5481 5478 5473 5469 5465 5460 5456 5452 5448 5443 5439 5435 5431 5426 5420 5415 5410 5405 5400 5395 5389 5384 5378 5372 5366 5359 5353 5347 5341 5334 5326 5319 5310 5301 5291 5281 5271 5262 5255 5248 5242 5236
5554 5553 5549 5544 5542 5543 5538 5530 5525 5527 5541 5552 5548 5546 5547 5542 5539 5537 5532 5536 5540 5536 5535 5536 5531 5529 5529 5525 5523 5521 5516 5514 5512 5510 5509 5507 5503 5500 5497 5493 5489 5486 5481 5477 5473 5469 5465 5461 5458 5453 5449 5445 5440 5436 5432 5428 5423 5418 5413 5408 5403 5398 5393 5388 5383 5378 5372 5366 5359 5353 5346 5339 5333 5326 5319 5311 5303 5293 5283 5273 5263 5255 5250 5245 5239 5233
5546 5543 5538 5536 5535 5533 5530 5524 5515 5519 5538 5545 5537 5535 5536 5530 5528 5531 5530 5528 5527 5526 5526 5525 5522 5522 5520 5516 5514 5512 5508 5506 5504 5501 5500 5497 5494 5492 5488 5485 5481 5477 5472 5469 5464 5461 5457 5453 5450 5446 5442 5438 5433 5429 5425 5420 5416 5411 5406 5401 5396 5391 5387 5382 5377 5371 5366 5359 5353 5346 5339 5332 5326 5319 5312 5304 5296 5287 5277 5267 5257 5250 5245 5241 5236 5230
5535 5531 5526 5527 5528 5525 5521 5517 5511 5517 5534 5538 5527 5523 5525 5523 5523 5525 5521 5518 5519 5518 5515 5513 5513 5513 5509 5507 5505 5502 5500 5498 5495 5492 5490 5487 5485 5483 5479 5476 5472 5468 5464 5460 5456 5453 5449 5445 5442 5438 5435 5431 5427 5422 5418 5413 5408 5403 5399 5394 5390 5385 5380 5375 5370 5365 5359 5353 5347 5339 5332 5325 5319 5312 5304 5297 5289 5280 5271 5262 5253 5246 5241 5238 5234 5228
5520 5520 5517 5518 5520 5516 5510 5508 5511 5516 5523 5523 5518 5517 5519 5519 5518 5515 5512 5511 5511 5508 5505 5504 5504 5502 5500 5498 5495 5492 5491 5490 5486 5484 5481 5477 5475 5473 5470 5467 5463 5459 5456 5452 5448 5445 5441 5437 5434 5430 5427 5424 5420 5415 5410 5405 5400 5396 5392 5387 5383 5378 5374 5369 5364 5358 5353 5346 5340 5334 5326 5319 5312 5304 5297 5290 5282 5273 5265 5256 5249 5243 5238 5235 5231 5226
5509 5513 5510 5506 5506 5503 5500 5502 5508 5511 5509 5509 5513 5515 5512 5510 5509 5507 5505 5503 5501 5497 5497 5497 5495 5493 5491 5489 5486 5485 5483 5480 5477 5475 5472 5469 5467 5464 5461 5458 5454 5450 5447 5444 5440 5436 5433 5429 5426 5422 5419 5416 5412 5408 5403 5398 5393 5389 5385 5381 5377 5372 5368 5363 5357 5352 5346 5341 5335 5328 5321 5313 5305 5297 5290 5282 5274 5266 5259 5252 5245 5240 5236 5232 5228 5223
5501 5503 5497 5494 5493 5491 5491 5497 5503 5503 5501 5503 5506 5505 5502 5500 5501 5500 5497 5494 5492 5489 5488 5487 5486 5484 5483 5480 5478 5477 5474 5471 5469 5466 5464 5461 5458 5455 5452 5449 5445 5442 5439 5435 5431 5428 5425 5421 5418 5414 5411 5408 5404 5400 5396 5391 5387 5383 5378 5375 5371 5366 5362 5357 5351 5346 5341 5335 5329 5322 5316 5308 5300 5291 5282 5274 5266 5258 5252 5246 5241 5236 5232 5229 5225 5221
5493 5493 5486 5484 5484 5480 5483 5494 5499 5494 5493 5497 5496 5494 5495 5495 5493 5491 5487 5484 5483 5480 5478 5478 5477 5475 5473 5472 5470 5467 5465 5463 5461 5458 5456 5453 5450 5447 5444 5440 5437 5434 5431 5427 5424 5420 5416 5413 5410 5406 5404 5400 5396 5393 5389 5384 5381 5376 5372 5368 5364 5360 5356 5351 5346 5340 5335 5329 5323 5317 5310 5304 5296 5287 5277 5268 5260 5252 5246 5241 5236 5231 5228 5225 5221 5218
5486 5485 5476 5473 5475 5472 5476 5488 5491 5484 5485 5491 5489 5486 5489 5488 5483 5481 5477 5474 5473 5471 5468 5468 5467 5465 5464 5463 5460 5458 5456 5454 5452 5450 5447 5445 5442 5439 5436 5432 5429 5426 5423 5419 5416 5412 5408 5405 5402 5399 5396 5392 5389 5385 5381 5378 5374 5370 5366 5362 5358 5354 5350 5345 5339 5334 5329 5323 5317 5311 5305 5298 5291 5283 5274 5263 5254 5247 5242 5238 5234 5228 5223 5220 5216 5212
5474 5473 5469 5468 5468 5464 5469 5480 5483 5476 5477 5483 5481 5478 5481 5479 5473 5470 5468 5465 5464 5462 5459 5459 5458 5456 5456 5453 5450 5450 5448 5445 5444 5441 5438 5436 5433 5430 5427 5424 5421 5418 5415 5411 5407 5404 5401 5398 5394 5392 5388 5385 5381 5378 5374 5371 5367 5363 5360 5356 5352 5348 5343 5338 5333 5328 5322 5317 5311 5305 5299 5292 5285 5278 5271 5261 5251 5242 5235 5231 5229 5226 5220 5215 5211 5207
5460 5462 5465 5464 5458 5456 5464 5476 5477 5467 5465 5473 5474 5471 5471 5470 5463 5460 5459 5457 5455 5453 5451 5450 5449 5449 5447 5444 5442 5440 5438 5436 5434 5432 5429 5427 5424 5421 5418 5416 5412 5409 5406 5403 5399 5396 5393 5390 5387 5384 5380 5377 5374 5371 5367 5364 5361 5357 5354 5350 5346 5342 5337 5332 5327 5322 5317 5312 5306 5299 5293 5287 5280 5273 5267 5259 5252 5244 5234 5225 5221 5220 5217 5213 5208 5205
5450 5456 5459 5453 5448 5451 5460 5469 5469 5457 5452 5461 5467 5463 5460 5459 5454 5451 5452 5450 5446 5445 5443 5441 5440 5440 5437 5434 5432 5431 5429 5427 5425 5423 5420 5418 5415 5412 5410 5407 5404 5401 5398 5394 5391 5388 5385 5382 5379 5376 5373 5370 5367 5364 5361 5358 5355 5351 5348 5344 5340 5336 5332 5327 5322 5317 5311 5306 5300 5294 5288 5282 5276 5269 5262 5256 5250 5245 5239 5230 5221 5216 5213 5210 5207 5204